VCC C

Last updated on Mon May 17 2021 00:02:13 GMT+0000 (Coordinated Universal Time)

1 44430U 98067QQ 21135.86339224 .14395497 12494-4 36286-3 0 9998 2 44430 51.6031 72.7547 0006607 237.3053 122.7339 16.45570539105634

Satellite not in orbit